When you browse on this site, cookies collect data to enhance your experience and personalize the content and advertising you see.
Visit our Privacy Policy to learn more. By continuing to use the site, you agree to this use of cookies and data.
  • In Norway
  • List of Countries
  • For 7 days
  • Water Temperature
  • Satellite Maps
  • Weather Map
  • Weather Widgets
  • user-avatar
    Login

    Hourly Weather Newcastle

    Today, 23 January, Wednesday

    Time Temperature Precipitation Wind Pressure Humidity
    00:00 +25°C° 0 mm 2 mps 758 mmHg 84%
    01:00 +24°C° 0 mm 2 mps 757 mmHg 85%
    02:00 +24°C° 0 mm 2 mps 757 mmHg 84%
    03:00 +24°C° 0 mm 1 mps 757 mmHg 83%
    04:00 +24°C° 0 mm 1 mps 757 mmHg 82%
    05:00 +25°C° 0.1 mm 1 mps 757 mmHg 81%
    06:00 +26°C° 0.1 mm 1 mps 757 mmHg 79%
    07:00 +27°C° 0.1 mm 2 mps 758 mmHg 78%
    08:00 +30°C° 0.1 mm 2 mps 758 mmHg 65%
    09:00 +34°C° 0.1 mm 2 mps 758 mmHg 52%
    10:00 +37°C° 0.1 mm 2 mps 757 mmHg 39%
    11:00 +38°C° 0 mm 3 mps 757 mmHg 39%
    12:00 +39°C° 0 mm 5 mps 757 mmHg 39%
    13:00 +39°C° 0 mm 6 mps 757 mmHg 39%
    14:00 +36°C° 0 mm 6 mps 757 mmHg 48%
    15:00 +34°C° 0 mm 6 mps 757 mmHg 57%
    16:00 +30°C° 0 mm 6 mps 757 mmHg 65%
    17:00 +28°C° 0.2 mm 5 mps 758 mmHg 74%
    18:00 +26°C° 0.2 mm 5 mps 758 mmHg 82%
    19:00 +25°C° 0.2 mm 5 mps 759 mmHg 90%
    20:00 +23°C° 0.1 mm 5 mps 759 mmHg 90%
    21:00 +23°C° 0.1 mm 5 mps 760 mmHg 91%
    22:00 +22°C° 0.1 mm 5 mps 760 mmHg 92%
    23:00 +22°C° 0 mm 4 mps 760 mmHg 92%

    Tomorrow, 24 January, Thursday

    Time Temperature Precipitation Wind Pressure Humidity
    00:00 +22°C° 0 mm 4 mps 760 mmHg 93%
    01:00 +22°C° 0 mm 3 mps 759 mmHg 93%
    02:00 +22°C° 0 mm 4 mps 759 mmHg 93%
    03:00 +22°C° 0 mm 4 mps 759 mmHg 93%
    04:00 +22°C° 0 mm 5 mps 759 mmHg 92%
    05:00 +22°C° 0.1 mm 4 mps 759 mmHg 91%
    06:00 +22°C° 0.1 mm 4 mps 760 mmHg 90%
    07:00 +23°C° 0.1 mm 4 mps 760 mmHg 90%
    08:00 +23°C° 0.1 mm 4 mps 761 mmHg 87%
    09:00 +25°C° 0.1 mm 4 mps 761 mmHg 85%
    10:00 +25°C° 0.1 mm 4 mps 761 mmHg 83%
    11:00 +26°C° 0 mm 4 mps 760 mmHg 78%
    12:00 +28°C° 0 mm 5 mps 760 mmHg 72%
    13:00 +29°C° 0 mm 5 mps 760 mmHg 67%
    14:00 +29°C° 0 mm 5 mps 759 mmHg 67%
    15:00 +30°C° 0 mm 5 mps 759 mmHg 66%
    16:00 +30°C° 0 mm 5 mps 758 mmHg 66%
    17:00 +29°C° 0 mm 5 mps 759 mmHg 74%
    18:00 +27°C° 0 mm 4 mps 759 mmHg 81%
    19:00 +26°C° 0 mm 3 mps 759 mmHg 89%
    20:00 +25°C° 0 mm 3 mps 760 mmHg 92%
    21:00 +24°C° 0 mm 2 mps 760 mmHg 96%
    22:00 +24°C° 0 mm 2 mps 761 mmHg 99%
    23:00 +24°C° 0 mm 2 mps 760 mmHg 98%

    Day after tomorrow, 25 January, Friday

    Time Temperature Precipitation Wind Pressure Humidity
    00:00 +24°C° 0 mm 2 mps 760 mmHg 98%
    01:00 +24°C° 0 mm 2 mps 760 mmHg 97%
    02:00 +24°C° 0 mm 2 mps 760 mmHg 97%
    03:00 +24°C° 0 mm 2 mps 759 mmHg 97%
    04:00 +24°C° 0 mm 2 mps 759 mmHg 97%
    05:00 +25°C° 0 mm 1 mps 759 mmHg 95%
    06:00 +25°C° 0 mm 1 mps 760 mmHg 93%
    07:00 +25°C° 0 mm 1 mps 760 mmHg 91%
    08:00 +28°C° 0 mm 1 mps 760 mmHg 80%
    09:00 +28°C° 0 mm 0 mps 759 mmHg 68%
    10:00 +31°C° 0 mm 0 mps 759 mmHg 56%
    11:00 +35°C° 0 mm 1 mps 759 mmHg 49%
    12:00 +38°C° 0 mm 2 mps 758 mmHg 43%
    13:00 +40°C° 0 mm 3 mps 757 mmHg 36%
    14:00 +40°C° 0 mm 4 mps 757 mmHg 39%
    15:00 +38°C° 0 mm 4 mps 756 mmHg 41%
    16:00 +37°C° 0 mm 5 mps 756 mmHg 44%
    17:00 +35°C° 0 mm 5 mps 756 mmHg 54%
    18:00 +33°C° 0 mm 5 mps 756 mmHg 64%
    19:00 +30°C° 0 mm 5 mps 756 mmHg 74%
    20:00 +29°C° 0 mm 5 mps 756 mmHg 78%
    21:00 +28°C° 0 mm 4 mps 757 mmHg 81%
    22:00 +27°C° 0 mm 4 mps 757 mmHg 85%
    23:00 +26°C° 0 mm 4 mps 757 mmHg 87%

    26 January, Saturday

    Time Temperature Precipitation Wind Pressure Humidity
    00:00 +26°C° 0 mm 3 mps 756 mmHg 89%
    01:00 +25°C° 0 mm 3 mps 756 mmHg 91%
    02:00 +25°C° 0 mm 3 mps 755 mmHg 89%
    03:00 +25°C° 0 mm 3 mps 755 mmHg 87%
    04:00 +25°C° 0 mm 2 mps 755 mmHg 86%
    05:00 +26°C° 0 mm 2 mps 756 mmHg 77%
    06:00 +28°C° 0 mm 2 mps 756 mmHg 69%
    07:00 +29°C° 0 mm 2 mps 756 mmHg 60%
    08:00 +32°C° 0 mm 2 mps 756 mmHg 52%
    09:00 +36°C° 0 mm 2 mps 757 mmHg 44%
    10:00 +39°C° 0 mm 2 mps 757 mmHg 36%
    11:00 +42°C° 0 mm 3 mps 756 mmHg 32%
    12:00 +44°C° 0 mm 3 mps 756 mmHg 28%
    13:00 +45°C° 0 mm 4 mps 755 mmHg 24%
    14:00 +46°C° 0 mm 5 mps 755 mmHg 25%
    15:00 +45°C° 0 mm 5 mps 754 mmHg 26%
    16:00 +45°C° 0 mm 6 mps 754 mmHg 26%
    17:00 +41°C° 0 mm 6 mps 754 mmHg 35%
    18:00 +38°C° 0 mm 6 mps 754 mmHg 43%
    19:00 +34°C° 0 mm 6 mps 754 mmHg 51%
    20:00 +34°C° 0 mm 6 mps 754 mmHg 54%
    21:00 +33°C° 0 mm 5 mps 754 mmHg 57%
    22:00 +32°C° 0 mm 5 mps 755 mmHg 61%
    23:00 +30°C° 0 mm 4 mps 755 mmHg 64%

    27 January, Sunday

    Time Temperature Precipitation Wind Pressure Humidity
    00:00 +29°C° 0 mm 3 mps 755 mmHg 68%
    01:00 +28°C° 0 mm 2 mps 755 mmHg 71%
    02:00 +28°C° 0 mm 2 mps 755 mmHg 70%
    03:00 +28°C° 0 mm 2 mps 755 mmHg 69%
    04:00 +28°C° 0 mm 2 mps 754 mmHg 68%
    05:00 +29°C° 0 mm 2 mps 755 mmHg 64%
    06:00 +30°C° 0 mm 2 mps 755 mmHg 60%
    07:00 +31°C° 0 mm 2 mps 755 mmHg 56%
    08:00 +34°C° 0 mm 2 mps 755 mmHg 48%
    09:00 +37°C° 0 mm 2 mps 755 mmHg 40%
    10:00 +40°C° 0 mm 2 mps 755 mmHg 32%
    11:00 +42°C° 0 mm 3 mps 755 mmHg 29%
    12:00 +44°C° 0 mm 3 mps 755 mmHg 26%
    13:00 +45°C° 0 mm 3 mps 754 mmHg 23%
    14:00 +43°C° 0 mm 4 mps 754 mmHg 29%
    15:00 +41°C° 0 mm 4 mps 755 mmHg 35%
    16:00 +38°C° 0 mm 4 mps 755 mmHg 40%
    17:00 +35°C° 2.2 mm 5 mps 755 mmHg 55%
    18:00 +32°C° 2.2 mm 5 mps 756 mmHg 70%
    19:00 +28°C° 2.2 mm 6 mps 757 mmHg 85%
    20:00 +27°C° 1.6 mm 5 mps 758 mmHg 89%
    21:00 +27°C° 1.6 mm 4 mps 758 mmHg 92%
    22:00 +26°C° 1.6 mm 4 mps 759 mmHg 95%
    23:00 +26°C° 0 mm 3 mps 759 mmHg 96%

    28 January, Monday

    Time Temperature Precipitation Wind Pressure Humidity
    00:00 +26°C° 0 mm 3 mps 758 mmHg 96%
    01:00 +26°C° 0 mm 3 mps 758 mmHg 96%
    02:00 +26°C° 0.1 mm 3 mps 758 mmHg 96%
    03:00 +26°C° 0.1 mm 4 mps 759 mmHg 96%
    04:00 +26°C° 0.1 mm 4 mps 759 mmHg 96%
    05:00 +26°C° 0.1 mm 4 mps 759 mmHg 95%
    06:00 +26°C° 0.1 mm 4 mps 760 mmHg 94%
    07:00 +26°C° 0.1 mm 4 mps 760 mmHg 94%
    08:00 +27°C° 0 mm 4 mps 760 mmHg 91%
    09:00 +27°C° 0 mm 4 mps 760 mmHg 87%
    10:00 +28°C° 0 mm 4 mps 760 mmHg 84%
    11:00 +29°C° 0 mm 4 mps 760 mmHg 80%
    12:00 +29°C° 0 mm 4 mps 760 mmHg 75%
    13:00 +30°C° 0 mm 4 mps 759 mmHg 71%
    14:00 +31°C° 0 mm 3 mps 759 mmHg 70%
    15:00 +31°C° 0 mm 3 mps 759 mmHg 69%
    16:00 +31°C° 0 mm 2 mps 759 mmHg 68%
    17:00 +30°C° 0 mm 3 mps 759 mmHg 74%
    18:00 +29°C° 0 mm 3 mps 759 mmHg 80%
    19:00 +28°C° 0 mm 3 mps 759 mmHg 86%
    20:00 +27°C° 0.2 mm 3 mps 760 mmHg 88%
    21:00 +26°C° 0.2 mm 3 mps 760 mmHg 91%
    22:00 +26°C° 0.2 mm 2 mps 761 mmHg 94%
    23:00 +25°C° 0.1 mm 3 mps 760 mmHg 93%
    Show more